430  
ASUS45 KREV 240110  
RWRNV  
NEVADA REGIONAL WEATHER ROUNDUP  
NATIONAL WEATHER SERVICE RENO NV  
600 PM PDT SUN APR 23 2017  
 
NOTE: "FAIR" INDICATES FEW OR NO CLOUDS BELOW 12,000 FEET WITH NO  
SIGNIFICANT WEATHER AND/OR S TO VISIBILITY
.  
 
NVZ001-003-004-240200-  
WESTERN NEVADA  
 
CITY SKY/WX TMP DP RH WIND PRES REMARKS
 
RENO PTSUNNY 62 22 21 W18G26 29.89R  
CARSON CITY FAIR 59 9 13 W13G23 29.92R  
MINDEN FAIR 57 27 30 W12G20 29.90F  
FALLON FAIR 66 4 8 W22 29.83R  
LOVELOCK FAIR 66 14 13 W24G30 29.82R  
HAWTHORNE SUNNY 68 19 15 NW13G20 29.80S  

 
 
NVZ002-CAZ072-073-240200-  
NORTHERN AND CENTRAL SIERRA  
 
CITY SKY/WX TMP DP RH WIND PRES REMARKS
 
S. LAKE TAHOE FAIR 50 24 36 S16G24 29.98R  
TRUCKEE SUNNY 48 19 32 SW13G22 29.99R  
SQUAW VLY 8000 N/A 36 27 69 SW13 N/A  
SUSANVILLE MOSUNNY 57 32 38 W14G21 29.91R  
MAMMOTH LAKES FAIR 56 25 30 NW15G24 29.98S  

 
 
NVZ030-031-036-240200-  
NORTHERN NEVADA  
 
CITY SKY/WX TMP DP RH WIND PRES REMARKS
 
ELKO FAIR 63 21 20 W16 29.82R  
WINNEMUCCA FAIR 62 20 19 W15G25 29.81S  
WENDOVER CLOUDY 62 37 39 SE14 29.79F  

 
 
NVZ035-037-240200-  
CENTRAL NEVADA  
 
CITY SKY/WX TMP DP RH WIND PRES REMARKS
 
ELY FAIR 54 30 40 CALM 29.87F  
EUREKA N/A 60 19 20 W18G24 29.84S  

 
 
NVZ013-014-240200-  
SOUTH CENTRAL NEVADA  
 
CITY SKY/WX TMP DP RH WIND PRES REMARKS
 
TONOPAH FAIR 67 32 27 W12 29.84R  

 
 
NVZ017-020-022-240200-  
SOUTHERN NEVADA  
 
CITY SKY/WX TMP DP RH WIND PRES REMARKS
 
LAS VEGAS FAIR 87 17 7 S14G24 29.63R  
N. LAS VEGAS FAIR 86 16 7 W18G28 29.63R  
NELLIS AFB FAIR 87 19 8 S21 29.61R  
HENDERSON FAIR 85 24 11 SW21G29 29.68R  
MERCURY FAIR 82 17 9 W16 29.68F  

 
 
 
CLICK HERE TO GO TO PREVIOUS BULLETINS.

The Nexlab NV Page Main Text Page